Location: Apeadero de Los Molinos-Guadarrama
(40.7091°N, 4.0689°W)
Time: 09:40:19
(UTC+00:00)

Cosmos 1869 Rocket - Pass Details

Date: 14 May 2021
Orbit: 605 x 633 km, 82.5° (Epoch: 16 June)

Event Time Altitude Azimuth Distance (km) Brightness Sun altitude
Rises 21:24:17 0° 359° (N) 2,869 7.7 -18.8°
Reaches altitude 10° 21:26:37 10° 7° (N) 1,962 6.7 -19.1°
Maximum altitude 21:30:43 41° 78° (ENE) 890 4.1 -19.6°
Enters shadow 21:31:14 39° 97° (E) 916 4.0 -19.6°
